OBJECT A, 69097

Orbit data source: Space-Track

You're viewing an Uncataloged Satellite

Recently launched and/or uncataloged satellites may have evolving metadata. Metadata may include but not limited to: Owner, Maufacturer, Bus, Motor, and Mission.

OBJECT A, 69097 is a Chinese satellite in SSO that was launched on Fri, 15 May 2026 UTC via a LIJIAN-1 launch vehicle from the Jiuquan Satellite Launch Center, China (JSC). Unknown objects in Earth's orbit typically refer to objects detected orbiting the Earth but have not yet been identified or cataloged. These objects could be anything from previously untracked satellites, spent rocket stages, debris from satellite collisions, or even natural meteoroids temporarily captured by Earth's gravity.

Loading next visibility...
Identifier
69097, 2026-106A
Orbit
SSO
Country
Flag of CNCN / PRC
Related business
None
Manufacturer
Unknown
Mission
Operational spacecraft
Bus & Motor
Unknown
Mass
Unknown
Launch date (UTC)
2026-05-15 (1 month ago)
Launch vehicle
LIJIAN-1
Launch site
Jiuquan Satellite Launch Center, China (JSC)
Object type
Unknown
Shape & HBR
Unknown shape, 1.1 m
Radar Cross Section
Large (>1 m²)

Expand to show TLE details & history
Last TLE update: 6 hours ago

TLE from 6 hours ago
0 OBJECT A
1 69097U 26106A   26168.80874800  .00004729  00000-0  28466-3 0  9995
2 69097  97.5095 250.8820 0015046 159.1038 201.0810 15.11201508  5074
Epoch: 2026-06-17T19:24Z
TLE epoch observation values (Epoch: 2026-06-17T19:24:35.827Z)
Latitude
-0.00002°
Longitude
53.67161°
Altitude
545.316 km
Speed
7.584 km/s
True Right ascension
16h 43m 31s
True Declination
0° 00' 00"
Sunlit
Object was in full shadow at epoch
Visualization orbit readout
Latitude
Unknown
Longitude
Unknown
Altitude
Unknown
Speed
Unknown
Apparent Right ascension
Unknown
Apparent Declination
Unknown
Sunlit
N/A
Visualization observer readout
Local Sidereal Time
12:30:35
Azimuth
Unknown
Elevation
Unknown
Doppler factor
Unknown
Orbital elements
Apogee altitude
539.91 km
Perigee altitude
519.123 km
Semi-major axis
6,907.654 km
Eccentricity
0.0015
Inclination
97.5095°
RAAN
250.882°
Arg. of periapsis
159.1038°
True anomaly
201.01909°
Mean anomaly
201.081°
Eccentric anomaly
201.05004°
Mean motion
3.78048 °/min
Orbital period
95.23 mins
BSTAR
0.00028466
Loading maneuver chart data...
Computing Atmospheric mass density...
Loading historical data...
Loading historical data...
Loading historical data...
Loading historical data...
Loading historical data...
Loading historical data...
Loading historical data...
Other satellites on launch #106 in the year 2026 (2026-05-15 UTC)

Documentation

Showing up to 5 results
|